Flag for U.S.A. Weather past 2 weeks in New Bedford, Massachusetts, U.S.A.

Now
56 °F

Passing clouds.


Feels Like: 56 °F
Forecast: 55 / 74 °F
Wind: No wind

Location: New Bedford Regional Airport

Current Time: Aug 20, 2014 at 11:13:37 PM

Latest Report: Aug 20, 2014 at 9:53 PM


Visibility: 10 mi

Pressure: 30.03 "Hg

Humidity: 97%

Dew point: 55 °F

Location of New BedfordLocation

Historic Weather in New Bedford — Graph

°F

New Bedford temperature yesterday

Maximum temperature yesterday: 78 °F (at 1:53 PM)
Minimum temperature yesterday: 48 °F (at 5:53 AM)
Average temperature yesterday: 64 °F

Past Weeks' High & Low Weather Summary

 TemperatureHumidityPressure
High84 °F (Aug 10, 2:53 PM)100% (Aug 10, 2:53 AM)30.16 "Hg (Aug 10, 2:53 AM)
Low48 °F (Aug 19, 5:53 AM)35% (Aug 10, 2:53 PM)29.62 "Hg (Aug 13, 7:53 PM)
Average68 °F75%29.93 "Hg
* Reported Aug 5 9:53 PM — Aug 20 9:53 PM, New Bedford, Weather by CustomWeather, © 2014

Note: Actual official high and low records may vary slightly from our data, if they occured in-between our weather recording intervals... More about our weather records

Advertising

New Bedford weather history for previous 24 hours

 ConditionsComfort  
Time TempWeatherWind HumidityBarometerVisibility
9:53 PM
Aug 20
56 °FPassing clouds.No wind97%30.03 "Hg10 mi
8:53 PM60 °FClear.No wind90%30.04 "Hg10 mi
7:53 PM65 °FSunny.3 mph70%30.03 "Hg10 mi
6:53 PM71 °FSunny.7 mph55%30.01 "Hg10 mi
5:53 PM73 °FSunny.8 mph66%30.01 "Hg10 mi
4:53 PM75 °FSunny.12 mph60%30.00 "Hg10 mi
3:53 PM76 °FSunny.10 mph56%29.99 "Hg10 mi
2:53 PM76 °FPassing clouds.10 mph56%29.99 "Hg10 mi
1:53 PM79 °FPartly sunny.No wind48%30.00 "Hg10 mi
12:53 PM77 °FPassing clouds.7 mph52%30.00 "Hg10 mi
11:53 AM76 °FSunny.7 mph54%30.01 "Hg10 mi
10:53 AM76 °FSunny.5 mph60%30.01 "Hg10 mi
9:53 AM73 °FSunny.No wind69%30.00 "Hg10 mi
8:53 AM69 °FSunny.5 mph79%29.99 "Hg10 mi
7:53 AM64 °FSunny.No wind90%29.99 "Hg10 mi
6:53 AM53 °FFog.No wind100%29.98 "Hg1 mi
6:01 AM51 °FFog.No wind96%29.98 "Hg0 mi
4:53 AM53 °FLow clouds.No wind96%29.96 "Hg10 mi
3:53 AM53 °FPassing clouds.No wind96%29.96 "Hg9 mi
3:02 AM54 °FFog.No wind97%29.95 "Hg1 mi
2:53 AM54 °FFog.No wind97%29.95 "Hg2 mi
1:53 AM54 °FClear.No wind97%29.95 "Hg10 mi
12:53 AM56 °FClear.No wind93%29.96 "Hg10 mi
11:53 PM
Aug 19
56 °FClear.No wind97%29.96 "Hg10 mi
Weather by CustomWeather, © 2014

See weather overviewHow to use our weather pages